Home   Weather   Molepolole   Past weeks

Flag for Botswana Past Weather in Molepolole, Botswana — Yesterday and Last 2 Weeks

Now
75 °F

Passing clouds.


Feels Like: 76 °F
Forecast: 46 / 71 °F
Wind: 8 mph from Northeast

Location: Seretse Khama International Airport

Current Time: Jun 29, 2017 at 2:22:59 pm

Latest Report: Jun 29, 2017 at 2:00 pm


Visibility: N/A

Pressure: 30.24 "Hg (26.51 "Hg at 1145m altitude)

Humidity: 19%

Dew Point: 30 °F

Location of MolepololeLocation

Past Weather in Molepolole — Graph

°F

Molepolole Temperature Yesterday

Maximum temperature yesterday: 77 °F (at 3:00 pm)
Minimum temperature yesterday: 46 °F (at 4:00 am)
Average temperature yesterday: 59 °F

High & Low Weather Summary for the Past Weeks

 TemperatureHumidityPressure
High82 °F (Jun 14, 3:00 pm)100% (Jun 20, 5:00 am)30.42 "Hg (Jun 20, 5:00 am)
Low36 °F (Jun 26, 7:00 am)11% (Jun 23, 5:00 pm)30.12 "Hg (Jun 14, 2:00 pm)
Average58 °F55%30.25 "Hg
* Reported Jun 14 1:00 pm — Jun 29 1:00 pm, Molepolole. Weather by CustomWeather, © 2017

Note: Actual official high and low records may vary slightly from our data, if they occured in-between our weather recording intervals... More about our weather records

Advertising

Molepolole Weather History for the Previous 24 Hours

Scroll right to see more
 ConditionsComfort  
Time TempWeatherWind HumidityBarometerVisibility
1:00 pm
Thu, Jun 29
75 °FPassing clouds.7 mph21%30.27 "HgN/A
12:00 pm70 °FPassing clouds.7 mph25%30.30 "HgN/A
11:00 am66 °FPassing clouds.5 mph30%30.33 "HgN/A
10:00 am63 °FPassing clouds.5 mph34%30.33 "HgN/A
9:00 am55 °FSunny.1 mph47%30.33 "Hg10 mi
8:00 am43 °FSunny.2 mph71%30.30 "Hg10 mi
7:00 am36 °FSunny.3 mph87%30.27 "Hg10 mi
6:00 am37 °FClear.5 mph81%30.24 "Hg10 mi
5:00 am39 °FClear.2 mph75%30.24 "Hg10 mi
4:00 am41 °FPassing clouds.5 mph76%30.24 "HgN/A
3:00 am45 °FClear.2 mph66%30.24 "Hg10 mi
2:00 am46 °FClear.2 mph66%30.24 "Hg10 mi
1:00 am50 °FPassing clouds.3 mph58%30.24 "HgN/A
12:00 am48 °FClear.5 mph66%30.24 "Hg10 mi
11:00 pm
Wed, Jun 28
55 °FClear.3 mph47%30.24 "Hg10 mi
10:00 pm59 °FClear.7 mph45%30.21 "Hg10 mi
9:00 pm59 °FClear.7 mph55%30.21 "Hg10 mi
8:00 pm61 °FClear.5 mph48%30.18 "Hg10 mi
7:00 pm63 °FClear.6 mph45%30.18 "Hg10 mi
6:00 pm66 °FClear.7 mph40%30.15 "Hg10 mi
5:00 pm75 °FSunny.12 mph29%30.15 "Hg10 mi
4:00 pm77 °FPassing clouds.10 mph28%30.12 "HgN/A
3:00 pm77 °FPassing clouds.12 mph28%30.12 "HgN/A
2:00 pm75 °FPassing clouds.10 mph27%30.15 "HgN/A
Weather by CustomWeather, © 2017

See weather overviewHow to use our weather pages